SDM5992 UUEE-ULLI

Flight info

Callsign SDM5992
Flight time 1h 5m
Altitude 36000
Route TOKNU3E TOKNU L4 NUDKO T561 ODATI T875 GENPA GENPA1V
Aircraft A319/M-SDE3FGHIRWY/LB1

Departure

Time 2026-05-07 19:37
Airport Sheremetyevo International Airport (UUEE)

Arrival

Time 2026-05-07 20:42
Airport Pulkovo Airport (ULLI)
Time Latitude Longitude Altitude Speed Heading
2026-05-07 19:13 55.97738 37.40260 637 ft 0 kts 166°
2026-05-07 19:31 55.97725 37.40266 637 ft 3 kts 167°
2026-05-07 19:31 55.97697 37.40273 637 ft 4 kts 190°
2026-05-07 19:32 55.97672 37.40229 637 ft 5 kts 249°
2026-05-07 19:32 55.97660 37.40153 637 ft 6 kts 255°
2026-05-07 19:32 55.97648 37.40067 637 ft 7 kts 255°
2026-05-07 19:32 55.97633 37.39967 637 ft 8 kts 256°
2026-05-07 19:33 55.97617 37.39864 637 ft 8 kts 256°
2026-05-07 19:33 55.97605 37.39781 637 ft 2 kts 251°
2026-05-07 19:33 55.97587 37.39762 637 ft 3 kts 193°
2026-05-07 19:33 55.97556 37.39765 637 ft 5 kts 166°
2026-05-07 19:34 55.97518 37.39784 637 ft 6 kts 165°
2026-05-07 19:34 55.97472 37.39808 637 ft 5 kts 163°
2026-05-07 19:34 55.97433 37.39829 637 ft 6 kts 163°
2026-05-07 19:34 55.97391 37.39851 637 ft 5 kts 165°
2026-05-07 19:35 55.97350 37.39871 637 ft 6 kts 166°
2026-05-07 19:35 55.97303 37.39894 637 ft 7 kts 165°
2026-05-07 19:35 55.97274 37.39908 637 ft 0 kts 165°
2026-05-07 19:36 55.97263 37.39913 637 ft 2 kts 165°
2026-05-07 19:36 55.97234 37.39926 637 ft 6 kts 166°
2026-05-07 19:36 55.97190 37.39952 637 ft 6 kts 145°
2026-05-07 19:36 55.97186 37.40036 637 ft 8 kts 74°
2026-05-07 19:37 55.97255 37.40491 638 ft 77 kts 75°
2026-05-07 19:37 55.97461 37.41869 638 ft 147 kts 76°
2026-05-07 19:37 55.97750 37.43813 1033 ft 168 kts 72°
2026-05-07 19:37 55.98038 37.45717 1897 ft 158 kts 72°
2026-05-07 19:38 55.98312 37.47567 2680 ft 153 kts 71°
2026-05-07 19:38 55.98584 37.49400 3203 ft 162 kts 73°
2026-05-07 19:38 55.98830 37.51478 3575 ft 181 kts 85°
2026-05-07 19:38 55.98586 37.53661 4589 ft 180 kts 117°
2026-05-07 19:39 55.97955 37.55565 5310 ft 189 kts 120°
2026-05-07 19:39 55.97208 37.57640 5760 ft 208 kts 121°
2026-05-07 19:39 55.96765 37.60147 6225 ft 223 kts 88°
2026-05-07 19:39 55.97203 37.62867 6652 ft 239 kts 54°
2026-05-07 19:40 55.98486 37.64874 7068 ft 256 kts 19°
2026-05-07 19:40 56.00272 37.65167 7615 ft 267 kts 347°
2026-05-07 19:40 56.02074 37.64348 8429 ft 274 kts 348°
2026-05-07 19:40 56.03971 37.63784 9321 ft 277 kts 343°
2026-05-07 19:41 56.05644 37.62183 10178 ft 278 kts 318°
2026-05-07 19:41 56.06825 37.59439 10829 ft 289 kts 298°
2026-05-07 19:41 56.07705 37.56092 11303 ft 306 kts 295°
2026-05-07 19:41 56.08581 37.52519 11979 ft 315 kts 294°
2026-05-07 19:42 56.09453 37.48935 12796 ft 318 kts 294°
2026-05-07 19:42 56.10336 37.45321 13594 ft 321 kts 295°
2026-05-07 19:42 56.11228 37.41684 14352 ft 324 kts 295°
2026-05-07 19:42 56.12143 37.37965 15097 ft 327 kts 295°
2026-05-07 19:43 56.13058 37.34247 15817 ft 330 kts 294°
2026-05-07 19:43 56.13981 37.30484 16525 ft 334 kts 294°
2026-05-07 19:43 56.14919 37.26657 17218 ft 337 kts 295°
2026-05-07 19:43 56.15869 37.22781 17894 ft 340 kts 295°
2026-05-07 19:44 56.16819 37.18903 18541 ft 343 kts 295°
2026-05-07 19:44 56.17776 37.14993 19176 ft 346 kts 295°
2026-05-07 19:44 56.18740 37.11049 19796 ft 349 kts 295°
2026-05-07 19:44 56.19718 37.07041 20405 ft 352 kts 294°
2026-05-07 19:45 56.20705 37.02984 20998 ft 355 kts 294°
2026-05-07 19:45 56.21696 36.98909 21576 ft 358 kts 294°
2026-05-07 19:45 56.22695 36.94785 22132 ft 361 kts 294°
2026-05-07 19:45 56.23695 36.90652 22666 ft 365 kts 294°
2026-05-07 19:46 56.24703 36.86473 23203 ft 367 kts 294°
2026-05-07 19:46 56.25719 36.82256 23727 ft 370 kts 294°
2026-05-07 19:46 56.26743 36.77995 24239 ft 373 kts 294°
2026-05-07 19:46 56.27772 36.73706 24744 ft 376 kts 294°
2026-05-07 19:47 56.28802 36.69410 25233 ft 379 kts 294°
2026-05-07 19:47 56.29852 36.65022 25726 ft 382 kts 294°
2026-05-07 19:47 56.30895 36.60655 26193 ft 385 kts 295°
2026-05-07 19:47 56.31963 36.56168 26664 ft 388 kts 295°
2026-05-07 19:48 56.33016 36.51737 27124 ft 391 kts 295°
2026-05-07 19:48 56.34088 36.47218 27578 ft 394 kts 295°
2026-05-07 19:48 56.35218 36.42697 28035 ft 396 kts 297°
2026-05-07 19:48 56.36484 36.38341 28470 ft 398 kts 301°
2026-05-07 19:49 56.37925 36.34052 28889 ft 401 kts 304°
2026-05-07 19:49 56.39499 36.29893 29319 ft 403 kts 306°
2026-05-07 19:49 56.41111 36.25765 29749 ft 406 kts 306°
2026-05-07 19:49 56.42762 36.21562 30177 ft 408 kts 306°
2026-05-07 19:50 56.44395 36.17400 30585 ft 411 kts 306°
2026-05-07 19:50 56.46055 36.13157 30997 ft 414 kts 306°
2026-05-07 19:50 56.47706 36.08927 31501 ft 413 kts 306°
2026-05-07 19:50 56.49344 36.04718 32063 ft 411 kts 306°
2026-05-07 19:51 56.50977 36.00517 32601 ft 410 kts 306°
2026-05-07 19:51 56.52607 35.96314 33112 ft 408 kts 306°
2026-05-07 19:51 56.54246 35.92080 33607 ft 407 kts 306°
2026-05-07 19:51 56.55854 35.87921 34079 ft 407 kts 306°
2026-05-07 19:52 56.57480 35.83707 34507 ft 407 kts 306°
2026-05-07 19:52 56.59097 35.79508 34864 ft 408 kts 307°
2026-05-07 19:52 56.60698 35.75343 35196 ft 410 kts 306°
2026-05-07 19:52 56.62331 35.71086 35530 ft 412 kts 307°
2026-05-07 19:53 56.63974 35.66797 35801 ft 413 kts 306°
2026-05-07 19:53 56.65599 35.62550 35837 ft 414 kts 307°
2026-05-07 19:53 56.68879 35.53957 35847 ft 415 kts 307°
2026-05-07 19:54 56.72165 35.45306 35849 ft 414 kts 307°
2026-05-07 19:54 56.75423 35.36670 35851 ft 415 kts 306°
2026-05-07 19:55 56.78662 35.28035 35850 ft 415 kts 306°
2026-05-07 19:55 56.81910 35.19334 35852 ft 414 kts 306°
2026-05-07 19:56 56.85120 35.10705 35851 ft 414 kts 306°
2026-05-07 19:56 56.88523 35.02199 35851 ft 413 kts 310°
2026-05-07 19:57 56.92434 34.94545 35850 ft 413 kts 317°
2026-05-07 19:57 56.96832 34.87857 35850 ft 414 kts 323°
2026-05-07 19:58 57.01595 34.81995 35850 ft 414 kts 325°
2026-05-07 19:58 57.06419 34.76239 35850 ft 414 kts 324°
2026-05-07 19:59 57.11232 34.70467 35851 ft 415 kts 323°
2026-05-07 19:59 57.16083 34.64644 35852 ft 416 kts 323°
2026-05-07 20:00 57.20887 34.58840 35853 ft 416 kts 323°
2026-05-07 20:00 57.25718 34.52976 35853 ft 416 kts 323°
2026-05-07 20:01 57.30542 34.47100 35853 ft 416 kts 323°
2026-05-07 20:01 57.35349 34.41224 35853 ft 416 kts 323°
2026-05-07 20:02 57.40141 34.35348 35853 ft 416 kts 323°
2026-05-07 20:02 57.44963 34.29396 35853 ft 415 kts 322°
2026-05-07 20:03 57.49730 34.23496 35853 ft 415 kts 322°
2026-05-07 20:03 57.54546 34.17526 35852 ft 415 kts 322°
2026-05-07 20:04 57.59337 34.11573 35853 ft 415 kts 322°
2026-05-07 20:04 57.64128 34.05603 35852 ft 415 kts 322°
2026-05-07 20:05 57.68900 33.99636 35853 ft 415 kts 322°
2026-05-07 20:05 57.73703 33.93612 35852 ft 415 kts 322°
2026-05-07 20:06 57.78453 33.87632 35853 ft 415 kts 322°
2026-05-07 20:06 57.83229 33.81600 35871 ft 415 kts 322°
2026-05-07 20:07 57.87961 33.75371 35920 ft 413 kts 319°
2026-05-07 20:07 57.92424 33.68684 35975 ft 413 kts 318°
2026-05-07 20:08 57.96884 33.61883 36000 ft 413 kts 318°
2026-05-07 20:08 58.01322 33.55108 36010 ft 413 kts 318°
2026-05-07 20:09 58.05756 33.48320 36013 ft 412 kts 318°
2026-05-07 20:10 58.12425 33.38088 36015 ft 413 kts 318°
2026-05-07 20:10 58.16883 33.31229 36016 ft 412 kts 317°
2026-05-07 20:11 58.21299 33.24399 36015 ft 412 kts 317°
2026-05-07 20:11 58.25737 33.17519 36015 ft 412 kts 317°
2026-05-07 20:12 58.30164 33.10628 36015 ft 412 kts 317°
2026-05-07 20:12 58.34569 33.03748 36015 ft 413 kts 317°
2026-05-07 20:13 58.39011 32.96779 36015 ft 414 kts 317°
2026-05-07 20:13 58.43449 32.89794 36014 ft 415 kts 317°
2026-05-07 20:14 58.47878 32.82821 36015 ft 416 kts 317°
2026-05-07 20:14 58.52327 32.75791 36015 ft 416 kts 317°
2026-05-07 20:15 58.56747 32.68773 36015 ft 416 kts 317°
2026-05-07 20:15 58.61187 32.61695 36015 ft 415 kts 317°
2026-05-07 20:15 58.63413 32.58134 35733 ft 419 kts 317°
2026-05-07 20:16 58.65647 32.54550 34990 ft 422 kts 317°
2026-05-07 20:16 58.67868 32.50985 34332 ft 424 kts 317°
2026-05-07 20:16 58.70132 32.47345 33695 ft 424 kts 317°
2026-05-07 20:16 58.72381 32.43722 33069 ft 424 kts 317°
2026-05-07 20:17 58.74631 32.40093 32442 ft 423 kts 317°
2026-05-07 20:17 58.76870 32.36478 31820 ft 423 kts 317°
2026-05-07 20:17 58.79092 32.32883 31200 ft 422 kts 316°
2026-05-07 20:17 58.81331 32.29247 30572 ft 421 kts 316°
2026-05-07 20:18 58.83578 32.25592 29990 ft 418 kts 316°
2026-05-07 20:18 58.85757 32.22044 29581 ft 412 kts 316°
2026-05-07 20:18 58.87940 32.18496 29146 ft 406 kts 316°
2026-05-07 20:18 58.90067 32.15038 28718 ft 401 kts 317°
2026-05-07 20:19 58.92180 32.11594 28289 ft 395 kts 317°
2026-05-07 20:19 58.94268 32.08176 27862 ft 390 kts 317°
2026-05-07 20:19 58.96310 32.04826 27440 ft 385 kts 317°
2026-05-07 20:19 58.98325 32.01516 27025 ft 380 kts 317°
2026-05-07 20:20 59.00319 31.98234 26609 ft 375 kts 317°
2026-05-07 20:20 59.02298 31.94972 26193 ft 371 kts 317°
2026-05-07 20:20 59.04225 31.91793 25788 ft 367 kts 317°
2026-05-07 20:20 59.06159 31.88595 25382 ft 363 kts 317°
2026-05-07 20:21 59.08056 31.85440 24979 ft 359 kts 316°
2026-05-07 20:21 59.09849 31.82080 24574 ft 354 kts 311°
2026-05-07 20:21 59.11446 31.78512 24178 ft 350 kts 306°
2026-05-07 20:21 59.12866 31.74750 23784 ft 346 kts 303°
2026-05-07 20:22 59.14214 31.70894 23389 ft 343 kts 302°
2026-05-07 20:22 59.15538 31.67049 22998 ft 340 kts 302°
2026-05-07 20:22 59.16836 31.63271 22619 ft 338 kts 302°
2026-05-07 20:22 59.18139 31.59477 22234 ft 335 kts 302°
2026-05-07 20:23 59.19436 31.55694 21848 ft 333 kts 302°
2026-05-07 20:23 59.20709 31.51969 21465 ft 331 kts 302°
2026-05-07 20:23 59.21963 31.48289 21086 ft 329 kts 302°
2026-05-07 20:23 59.23222 31.44588 20703 ft 327 kts 302°
2026-05-07 20:24 59.24483 31.40878 20317 ft 325 kts 302°
2026-05-07 20:24 59.25712 31.37248 19940 ft 323 kts 302°
2026-05-07 20:24 59.26941 31.33611 19562 ft 321 kts 301°
2026-05-07 20:24 59.28182 31.29935 19176 ft 320 kts 301°
2026-05-07 20:25 59.29386 31.26367 18806 ft 318 kts 301°
2026-05-07 20:25 59.30612 31.22731 18426 ft 317 kts 301°
2026-05-07 20:25 59.31813 31.19164 18053 ft 315 kts 301°
2026-05-07 20:25 59.33012 31.15600 17675 ft 314 kts 301°
2026-05-07 20:26 59.34209 31.12035 17289 ft 313 kts 301°
2026-05-07 20:26 59.35397 31.08496 16902 ft 312 kts 301°
2026-05-07 20:26 59.36576 31.04974 16508 ft 311 kts 300°
2026-05-07 20:26 59.37750 31.01460 16112 ft 311 kts 300°
2026-05-07 20:27 59.38937 30.97912 15708 ft 311 kts 300°
2026-05-07 20:27 59.40130 30.94356 15297 ft 311 kts 300°
2026-05-07 20:27 59.41306 30.90824 14896 ft 310 kts 300°
2026-05-07 20:27 59.42482 30.87280 14503 ft 310 kts 300°
2026-05-07 20:28 59.43648 30.83757 14118 ft 308 kts 300°
2026-05-07 20:28 59.44817 30.80224 13733 ft 307 kts 299°
2026-05-07 20:28 59.45967 30.76747 13355 ft 306 kts 299°
2026-05-07 20:28 59.47123 30.73246 12977 ft 304 kts 299°
2026-05-07 20:29 59.48256 30.69809 12608 ft 302 kts 299°
2026-05-07 20:29 59.49400 30.66332 12232 ft 300 kts 299°
2026-05-07 20:29 59.50525 30.62909 11859 ft 298 kts 299°
2026-05-07 20:29 59.51638 30.59515 11488 ft 296 kts 299°
2026-05-07 20:30 59.52761 30.56086 11149 ft 293 kts 299°
2026-05-07 20:30 59.53835 30.52814 11070 ft 279 kts 299°
2026-05-07 20:30 59.54866 30.49686 11021 ft 269 kts 299°
2026-05-07 20:30 59.55892 30.46631 10635 ft 269 kts 300°
2026-05-07 20:31 59.56930 30.43560 10268 ft 269 kts 300°
2026-05-07 20:31 59.57973 30.40474 9880 ft 270 kts 300°
2026-05-07 20:31 59.58997 30.37430 9524 ft 269 kts 300°
2026-05-07 20:31 59.60033 30.34339 9217 ft 266 kts 299°
2026-05-07 20:32 59.61039 30.31334 8923 ft 264 kts 299°
2026-05-07 20:32 59.62053 30.28299 8597 ft 262 kts 299°
2026-05-07 20:32 59.63037 30.25348 8302 ft 260 kts 299°
2026-05-07 20:32 59.64035 30.22358 8012 ft 258 kts 299°
2026-05-07 20:33 59.65015 30.19422 7685 ft 258 kts 299°
2026-05-07 20:33 59.66000 30.16466 7414 ft 254 kts 299°
2026-05-07 20:33 59.66965 30.13568 7052 ft 255 kts 300°
2026-05-07 20:33 59.67932 30.10652 6797 ft 251 kts 300°
2026-05-07 20:34 59.68885 30.07781 6513 ft 248 kts 300°
2026-05-07 20:34 59.69820 30.04969 6216 ft 246 kts 300°
2026-05-07 20:34 59.70757 30.02135 5948 ft 243 kts 300°
2026-05-07 20:34 59.71678 29.99351 5669 ft 241 kts 300°
2026-05-07 20:35 59.72599 29.96559 5353 ft 240 kts 300°
2026-05-07 20:35 59.73508 29.93808 5050 ft 239 kts 300°
2026-05-07 20:35 59.74420 29.91050 4754 ft 238 kts 300°
2026-05-07 20:35 59.75312 29.88342 4469 ft 237 kts 300°
2026-05-07 20:36 59.76211 29.85614 4191 ft 235 kts 301°
2026-05-07 20:36 59.77098 29.82915 3921 ft 233 kts 302°
2026-05-07 20:36 59.78243 29.80665 3638 ft 237 kts 332°
2026-05-07 20:36 59.79842 29.80249 3412 ft 235 kts 14°
2026-05-07 20:37 59.81182 29.81827 3431 ft 221 kts 50°
2026-05-07 20:37 59.82016 29.84324 3447 ft 210 kts 62°
2026-05-07 20:37 59.82693 29.86749 3436 ft 199 kts 62°
2026-05-07 20:37 59.83375 29.89160 3273 ft 199 kts 62°
2026-05-07 20:38 59.84060 29.91516 3053 ft 197 kts 62°
2026-05-07 20:38 59.84757 29.93875 2757 ft 200 kts 60°
2026-05-07 20:38 59.85217 29.96483 2358 ft 203 kts 93°
2026-05-07 20:38 59.84938 29.99167 2217 ft 193 kts 111°
2026-05-07 20:39 59.84489 30.01627 2172 ft 186 kts 112°
2026-05-07 20:39 59.84082 30.03958 2225 ft 169 kts 110°
2026-05-07 20:39 59.83743 30.06099 2010 ft 157 kts 109°
2026-05-07 20:39 59.83441 30.08088 1786 ft 144 kts 108°
2026-05-07 20:40 59.83172 30.09900 1595 ft 130 kts 109°
2026-05-07 20:40 59.82913 30.11626 1408 ft 129 kts 109°
2026-05-07 20:40 59.82653 30.13322 1214 ft 129 kts 109°
2026-05-07 20:40 59.82394 30.15011 1039 ft 129 kts 109°
2026-05-07 20:41 59.82139 30.16725 878 ft 129 kts 108°
2026-05-07 20:41 59.81886 30.18411 710 ft 127 kts 108°
2026-05-07 20:41 59.81643 30.20102 557 ft 127 kts 108°
2026-05-07 20:41 59.81383 30.21792 374 ft 127 kts 107°
2026-05-07 20:42 59.81130 30.23489 221 ft 129 kts 107°
2026-05-07 20:42 59.80880 30.25167 86 ft 124 kts 107°
2026-05-07 20:42 59.80664 30.26619 74 ft 86 kts 107°
2026-05-07 20:42 59.80542 30.27435 75 ft 37 kts 106°
2026-05-07 20:43 59.80499 30.27725 74 ft 18 kts 106°
2026-05-07 20:43 59.80479 30.27850 74 ft 6 kts 126°
2026-05-07 20:43 59.80442 30.27825 74 ft 7 kts 242°
2026-05-07 20:43 59.80425 30.27716 75 ft 8 kts 252°
2026-05-07 20:44 59.80407 30.27615 76 ft 7 kts 251°
2026-05-07 20:44 59.80388 30.27505 76 ft 8 kts 251°
2026-05-07 20:44 59.80370 30.27396 77 ft 8 kts 251°
2026-05-07 20:44 59.80355 30.27306 77 ft 5 kts 251°
2026-05-07 20:45 59.80340 30.27257 79 ft 3 kts 225°
2026-05-07 20:45 59.80318 30.27229 80 ft 4 kts 202°
2026-05-07 20:45 59.80286 30.27231 80 ft 5 kts 149°
2026-05-07 20:45 59.80264 30.27315 79 ft 8 kts 107°
2026-05-07 20:46 59.80260 30.27337 79 ft 0 kts 106°
2026-05-07 20:48 59.80262 30.27311 79 ft 2 kts 75°
2026-05-07 20:48 59.80255 30.27285 80 ft 2 kts 45°
2026-05-07 20:49 59.80243 30.27269 80 ft 2 kts 13°
2026-05-07 20:49 59.80228 30.27263 81 ft 2 kts 18°
2026-05-07 20:49 59.80225 30.27260 81 ft 0 kts 18°